Regional Weather Roundup
Issued by NWS New Orleans/Baton Rouge, LA

Home | Current Version | Previous Version | Text Only | Print | Product List | Glossary On
Versions: 1 2 3 4 5 6 7 8 9 10 11 12 13 14 15 16 17 18 19 20 21 22 23 24 25 26 27 28 29 30 31 32 33 34 35 36 37 38 39 40 41 42 43 44 45 46 47 48 49
419
ASUS44 KLIX 230713
RWRLIX
NEW ORLEANS REGIONAL WEATHER ROUNDUP
NATIONAL WEATHER SERVICE NEW ORLEANS LA
200 AM CDT SAT SEP 23 2017

NOTE: "FAIR" INDICATES FEW OR NO CLOUDS BELOW 12,000 FEET WITH NO
      SIGNIFICANT WEATHER AND/OR OBSTRUCTIONS TO VISIBILITY.
      SKY/WX - SKY CONDITION AND SIGNIFICANT WEATHER.
      TMP - AIR TEMPERATURE.     DP    - DEWPOINT TEMPERATURE.
      RH  - RELATIVE HUMIDITY.   PRES  - PRESSURE.
      HI  - HEAT INDEX.          WCI   - WIND CHILL INDEX.

*  THESE STATIONS ARE NOT NWS OR FAA STATIONS AND ARE NOT UNDER
   NWS QUALITY CONTROL.

LAZ038-040-048-061>063-065>067-069-230800-
SOUTHEAST LOUISIANA

CITY           SKY/WX    TMP DP  RH WIND       PRES   REMARKS
N.O. INTL ARPT PTCLDY    75  74  96 CALM      29.93S
N.O. LAKEFRONT NOT AVBL
N.O. DOWNTOWN* NOT AVBL
RESERVE*         N/A     75  73  91 CALM      29.93F
SLIDELL        NOT AVBL
BATON ROUGE    CLEAR     74  72  93 CALM      29.94S
BOOTHVILLE     CLEAR     80  76  87 E3        29.93S
BELLE CHASSE   NOT AVBL
BOGALUSA*        N/A     73  69  89 CALM      29.96S
GALLIANO*      SUNNY     73  71  91 CALM      29.92S
NEW ROADS*       N/A     72  71  96 CALM      29.94F
GONZALES*        N/A     72  72  98 CALM      29.93S
HAMMOND*       CLEAR     72  70  94 CALM      29.94S FOG
HOUMA*         NOT AVBL
PORT FOURCHON* SUNNY     82  72  69 E6        29.92F

$$

MSZ070-080>082-230800-
SOUTHERN MISSISSIPPI

CITY           SKY/WX    TMP DP  RH WIND       PRES   REMARKS
MCCOMB         NOT AVBL
GULFPORT       NOT AVBL
BILOXI         CLEAR     73  69  89 NE6       29.93F
PASCAGOULA     NOT AVBL

$$

COASTAL OBSERVATIONS
LAKE AND NEARSHORE STATIONS

STATION/POSITION TIME  TEMP    WIND        PRES    WAVE
                       AIR SEA DIR/SP/G            HT/PER
                 (UTC) (F)     (DEG/KT/KT) (MB)    (FT/S)
PASCAGOULA       0642           10/  6/  7 1013.5
WAVELAND YACHT   0642           40/  5/  7 1013.9
GRAND ISLE       0642           80/  5/  9 1013.4
SOUTHWEST PASS   0642           80/  8/ 11   N/A
NEW CANAL        0642           CALM  /  2 1013.4
SHELL BEACH      0642           70/  8/ 10 1013.5

OFFSHORE STATIONS

STATION/POSITION TIME  TEMP    WIND        PRES    WAVE
                       AIR SEA DIR/SP/G            HT/PER
                 (UTC) (F)     (DEG/KT/KT) (MB)    (FT/S)
64 S DAUPHIN ISL 0650   82 84   70/  6/  8 1013.3    1/ 4

$$





USA.gov is the U.S. government's official web portal to all federal, state and local government web resources and services.